Precipitable_Water
0.54 0.57 0.60 0.63 0.65 0.59 0.50 0.45 0.47 0.51 0.53 0.52 0.47 0.41 0.44 0.42 0.44 0.31 0.22 0.33 0.42 0.47 0.47 0.40 0.40 0.43 0.43 0.39 0.47 0.49 0.30 0.27 0.28 0.26 0.28 0.36 0.32 0.39 0.46 0.39 0.44 0.45 0.45 0.48 0.53
0.69 0.74 0.82 0.79 0.73 0.75 0.70 0.56 0.45 0.45 0.49 0.54 0.55 0.47 0.45 0.46 0.38 0.25 0.36 0.42 0.44 0.46 0.35 0.31 0.29 0.36 0.32 0.33 0.36 0.31 0.26 0.26 0.34 0.36 0.33 0.38 0.37 0.39 0.37 0.34 0.34 0.36 0.44 0.49 0.48
0.82 0.85 0.88 0.82 0.67 0.62 0.64 0.72 0.73 0.58 0.48 0.51 0.57 0.51 0.47 0.50 0.28 0.26 0.39 0.41 0.44 0.46 0.39 0.39 0.35 0.33 0.29 0.34 0.34 0.33 0.25 0.33 0.36 0.39 0.37 0.36 0.36 0.42 0.38 0.35 0.41 0.37 0.41 0.48 0.47
0.93 0.91 0.91 0.85 0.69 0.64 0.64 0.65 0.68 0.70 0.60 0.53 0.58 0.52 0.47 0.48 0.18 0.32 0.39 0.40 0.43 0.43 0.37 0.33 0.31 0.28 0.28 0.28 0.34 0.28 0.33 0.34 0.34 0.34 0.34 0.33 0.42 0.40 0.40 0.37 0.45 0.47 0.47 0.45 0.44
0.99 0.97 0.97 0.93 0.80 0.78 0.68 0.63 0.60 0.59 0.60 0.58 0.58 0.49 0.51 0.31 0.29 0.39 0.41 0.40 0.41 0.38 0.34 0.31 0.29 0.27 0.24 0.29 0.30 0.27 0.29 0.33 0.36 0.37 0.36 0.40 0.42 0.38 0.36 0.45 0.51 0.53 0.55 0.56 0.56
1.12 1.09 1.09 1.01 0.85 0.85 0.75 0.65 0.58 0.55 0.56 0.55 0.53 0.55 0.39 0.25 0.40 0.40 0.38 0.39 0.39 0.35 0.35 0.35 0.32 0.33 0.27 0.28 0.26 0.30 0.31 0.33 0.35 0.33 0.37 0.37 0.37 0.35 0.39 0.49 0.50 0.56 0.58 0.61 0.62
1.23 1.15 1.13 1.10 0.91 0.90 0.77 0.72 0.60 0.57 0.58 0.57 0.61 0.55 0.33 0.30 0.41 0.39 0.39 0.38 0.42 0.39 0.32 0.40 0.40 0.29 0.30 0.26 0.31 0.32 0.27 0.31 0.31 0.32 0.32 0.39 0.33 0.31 0.44 0.52 0.49 0.56 0.57 0.60 0.63
1.27 1.22 1.17 1.10 0.97 0.93 0.84 0.79 0.71 0.59 0.59 0.58 0.62 0.50 0.26 0.43 0.41 0.37 0.40 0.39 0.43 0.49 0.41 0.44 0.46 0.35 0.29 0.32 0.27 0.26 0.27 0.21 0.28 0.31 0.32 0.36 0.23 0.32 0.47 0.49 0.47 0.53 0.56 0.58 0.62
1.33 1.27 1.18 1.06 0.98 0.97 0.89 0.81 0.76 0.70 0.68 0.65 0.51 0.37 0.26 0.40 0.32 0.39 0.43 0.37 0.40 0.48 0.48 0.47 0.41 0.27 0.27 0.21 0.20 0.23 0.17 0.20 0.21 0.31 0.31 0.30 0.25 0.32 0.43 0.47 0.47 0.53 0.56 0.57 0.59
1.33 1.31 1.20 1.09 1.00 0.97 0.88 0.81 0.76 0.64 0.57 0.58 0.47 0.30 0.29 0.27 0.36 0.41 0.46 0.42 0.38 0.40 0.37 0.34 0.28 0.23 0.25 0.20 0.14 0.17 0.17 0.19 0.18 0.25 0.29 0.27 0.27 0.32 0.39 0.40 0.43 0.52 0.56 0.57 0.58
1.35 1.29 1.25 1.12 0.98 0.88 0.83 0.72 0.55 0.44 0.40 0.35 0.32 0.29 0.31 0.37 0.46 0.39 0.43 0.40 0.39 0.34 0.26 0.29 0.23 0.20 0.23 0.23 0.22 0.22 0.20 0.19 0.23 0.26 0.25 0.25 0.26 0.29 0.33 0.34 0.36 0.47 0.55 0.57 0.61
1.33 1.28 1.28 1.09 1.00 0.86 0.81 0.67 0.59 0.54 0.32 0.41 0.38 0.36 0.41 0.44 0.37 0.38 0.41 0.32 0.33 0.27 0.28 0.24 0.21 0.24 0.27 0.25 0.22 0.21 0.21 0.19 0.23 0.28 0.23 0.25 0.24 0.30 0.29 0.30 0.34 0.41 0.53 0.58 0.63
1.32 1.26 1.27 1.15 1.03 0.91 0.78 0.78 0.79 0.68 0.39 0.37 0.41 0.37 0.36 0.46 0.37 0.37 0.36 0.37 0.34 0.28 0.26 0.23 0.25 0.27 0.26 0.23 0.22 0.21 0.22 0.22 0.20 0.26 0.29 0.24 0.21 0.24 0.29 0.28 0.32 0.34 0.44 0.60 0.63
1.35 1.26 1.26 1.16 0.94 0.90 0.75 0.89 0.83 0.79 0.34 0.37 0.38 0.42 0.47 0.44 0.38 0.41 0.41 0.40 0.33 0.28 0.28 0.27 0.29 0.26 0.25 0.22 0.24 0.20 0.26 0.26 0.25 0.23 0.18 0.27 0.14 0.21 0.25 0.25 0.26 0.27 0.32 0.45 0.59
1.34 1.27 1.30 1.17 0.93 0.80 0.84 0.92 0.85 0.79 0.28 0.41 0.45 0.57 0.48 0.38 0.37 0.36 0.47 0.40 0.31 0.30 0.28 0.25 0.27 0.27 0.25 0.23 0.26 0.23 0.30 0.28 0.26 0.25 0.25 0.23 0.20 0.21 0.26 0.23 0.25 0.27 0.29 0.33 0.44
1.29 1.25 1.27 1.15 0.97 0.94 1.00 0.95 0.81 0.43 0.31 0.41 0.50 0.48 0.40 0.40 0.37 0.40 0.39 0.42 0.39 0.31 0.31 0.30 0.34 0.31 0.29 0.30 0.30 0.30 0.29 0.29 0.29 0.25 0.19 0.24 0.22 0.19 0.23 0.25 0.27 0.29 0.30 0.30 0.34
1.20 1.19 1.13 1.14 0.86 1.01 1.03 0.80 0.45 0.36 0.46 0.45 0.47 0.46 0.41 0.39 0.36 0.37 0.36 0.34 0.30 0.25 0.25 0.29 0.30 0.32 0.33 0.29 0.29 0.28 0.25 0.19 0.20 0.20 0.18 0.27 0.23 0.21 0.29 0.30 0.29 0.28 0.29 0.30 0.30
1.10 1.05 1.05 1.05 1.04 1.01 0.93 0.61 0.37 0.40 0.43 0.50 0.50 0.45 0.40 0.42 0.41 0.38 0.35 0.32 0.34 0.29 0.26 0.24 0.23 0.29 0.32 0.30 0.29 0.30 0.27 0.21 0.16 0.18 0.20 0.24 0.19 0.24 0.34 0.35 0.33 0.31 0.30 0.30 0.29
1.13 1.04 1.01 1.00 1.02 0.97 0.71 0.46 0.42 0.45 0.50 0.48 0.48 0.42 0.40 0.41 0.38 0.38 0.36 0.33 0.33 0.30 0.24 0.25 0.25 0.32 0.33 0.33 0.34 0.30 0.27 0.30 0.24 0.26 0.23 0.23 0.26 0.34 0.36 0.34 0.34 0.31 0.30 0.29 0.29
1.01 0.95 0.94 0.99 1.01 0.84 0.59 0.48 0.49 0.52 0.54 0.47 0.40 0.39 0.35 0.38 0.38 0.38 0.34 0.35 0.33 0.35 0.35 0.30 0.25 0.30 0.32 0.34 0.34 0.33 0.35 0.27 0.28 0.21 0.19 0.24 0.24 0.24 0.30 0.32 0.34 0.32 0.31 0.30 0.30
0.95 0.75 0.94 0.99 0.95 0.70 0.50 0.51 0.52 0.54 0.57 0.47 0.40 0.37 0.36 0.38 0.40 0.38 0.35 0.36 0.38 0.38 0.37 0.33 0.29 0.29 0.31 0.29 0.29 0.31 0.29 0.31 0.32 0.29 0.23 0.22 0.25 0.33 0.34 0.36 0.35 0.36 0.35 0.34 0.33
0.84 0.60 0.95 0.96 0.65 0.63 0.54 0.53 0.55 0.51 0.53 0.47 0.45 0.39 0.39 0.42 0.41 0.39 0.36 0.38 0.43 0.40 0.33 0.35 0.30 0.26 0.28 0.34 0.36 0.34 0.31 0.31 0.27 0.26 0.29 0.27 0.27 0.41 0.39 0.39 0.40 0.38 0.38 0.36 0.37
0.74 0.73 0.95 0.86 0.53 0.55 0.59 0.55 0.53 0.50 0.48 0.46 0.44 0.45 0.45 0.45 0.42 0.42 0.41 0.45 0.46 0.42 0.36 0.35 0.29 0.24 0.28 0.31 0.34 0.31 0.35 0.36 0.36 0.36 0.29 0.26 0.28 0.42 0.42 0.42 0.42 0.41 0.40 0.39 0.38
0.79 0.59 0.74 0.71 0.66 0.58 0.51 0.50 0.48 0.50 0.49 0.47 0.44 0.47 0.47 0.47 0.49 0.43 0.41 0.44 0.48 0.45 0.44 0.42 0.32 0.30 0.26 0.29 0.31 0.29 0.33 0.35 0.33 0.30 0.30 0.30 0.32 0.38 0.41 0.43 0.42 0.43 0.43 0.42 0.41
0.80 0.66 0.70 0.54 0.59 0.57 0.54 0.49 0.46 0.45 0.51 0.51 0.46 0.49 0.48 0.44 0.43 0.42 0.45 0.48 0.53 0.52 0.47 0.39 0.30 0.32 0.33 0.33 0.32 0.31 0.32 0.33 0.32 0.33 0.28 0.31 0.34 0.41 0.43 0.46 0.45 0.46 0.46 0.44 0.42
0.73 0.69 0.73 0.68 0.66 0.58 0.55 0.50 0.47 0.50 0.48 0.46 0.46 0.50 0.49 0.46 0.48 0.44 0.48 0.50 0.46 0.48 0.43 0.43 0.33 0.33 0.30 0.35 0.34 0.31 0.35 0.34 0.35 0.35 0.34 0.34 0.35 0.48 0.51 0.51 0.47 0.47 0.45 0.44 0.42
0.92 0.84 0.77 0.68 0.62 0.56 0.55 0.53 0.52 0.53 0.55 0.55 0.53 0.53 0.50 0.53 0.58 0.58 0.60 0.58 0.54 0.48 0.45 0.41 0.36 0.32 0.26 0.32 0.30 0.26 0.30 0.33 0.34 0.36 0.36 0.32 0.38 0.43 0.41 0.45 0.45 0.44 0.44 0.42 0.41
Wind_Speed
18 17 17 17 16 14 13 12 12 11 11 11 11 10 10 10 10 12 13 14 16 17 17 16 16 17 13 10 7 4 3 5 7 8 11 11 11 12 13 14 15 17 19 24 27
19 19 19 19 17 15 14 13 12 11 11 10 10 9 9 9 9 12 13 14 16 16 17 16 16 17 13 12 9 6 3 3 4 6 7 9 10 12 12 14 17 21 24 27 28
19 19 20 21 19 17 15 14 12 11 10 10 9 8 8 8 8 11 13 14 16 15 16 15 15 14 13 12 11 8 5 4 5 6 6 6 8 9 12 13 18 24 28 30 31
19 19 21 21 20 20 18 15 13 11 10 9 9 8 8 8 8 10 13 14 15 14 14 15 15 14 12 12 11 9 8 6 7 7 7 6 5 7 11 15 21 25 29 32 33
18 19 20 21 20 20 20 17 14 12 10 9 8 7 7 9 9 11 13 14 14 13 13 13 15 12 11 11 10 9 9 8 7 8 5 5 7 6 14 19 22 25 25 26 28
18 19 20 21 19 20 20 17 14 12 10 8 7 7 7 8 9 11 13 14 14 13 13 13 12 12 10 10 10 10 10 8 7 5 3 6 7 8 16 21 23 23 21 22 22
19 20 20 20 18 20 20 17 14 13 10 8 7 7 8 7 10 11 13 14 13 13 12 12 12 12 10 8 10 9 9 10 7 2 3 4 6 12 17 21 23 21 21 22 21
20 20 21 20 18 20 20 16 15 13 11 8 7 6 7 8 10 11 14 13 13 13 12 12 12 11 11 9 10 8 9 10 5 3 6 3 7 12 18 19 22 21 22 22 20
20 21 21 21 18 20 20 16 15 13 11 8 7 6 7 9 11 11 13 13 12 12 12 12 12 12 12 10 9 10 8 8 6 5 4 7 8 13 16 19 22 23 22 23 21
20 20 21 21 18 20 19 16 14 14 11 9 9 7 9 10 11 12 14 13 13 12 12 12 12 12 12 11 8 9 9 9 6 5 5 7 7 12 15 18 22 23 24 22 21
20 20 21 20 18 21 19 16 14 12 14 11 9 8 10 12 11 12 15 13 13 12 12 12 11 12 12 10 10 10 8 8 8 6 6 8 9 12 16 18 21 21 25 24 22
20 20 20 21 17 19 19 16 14 9 10 11 10 10 11 13 13 13 15 14 13 12 12 12 10 11 11 11 11 10 8 9 9 7 8 10 12 12 15 15 17 19 21 24 23
19 20 20 22 17 18 18 17 13 9 9 11 11 11 12 14 12 14 15 14 13 12 12 9 11 12 10 12 12 10 8 10 9 8 9 7 11 8 10 13 16 18 19 21 23
18 20 20 21 16 18 16 18 13 9 8 12 12 12 14 14 11 13 15 14 13 13 12 10 12 12 12 12 12 12 10 11 11 9 8 7 8 8 7 10 13 17 18 18 20
18 18 20 18 16 17 18 18 12 10 9 12 13 13 16 13 13 14 15 14 14 13 12 12 13 13 12 13 12 12 12 13 11 10 11 8 7 8 7 8 11 14 16 16 17
17 18 19 16 16 17 20 16 11 12 10 12 12 15 15 15 14 15 15 15 13 13 12 14 13 11 14 15 13 15 13 12 10 9 10 10 7 8 6 6 7 9 12 15 16
18 18 17 16 17 19 20 15 13 11 13 13 13 14 13 15 14 14 15 16 14 15 16 15 13 13 14 16 13 17 13 12 11 9 10 10 10 11 7 6 6 7 9 11 13
18 18 17 16 18 20 18 15 12 13 13 12 13 13 13 16 14 16 14 14 15 14 14 14 15 16 16 15 15 14 12 10 12 12 13 11 11 10 8 5 5 5 6 8 10
19 17 17 17 18 20 16 14 11 12 13 14 13 12 15 15 15 16 14 12 13 15 15 16 15 17 14 17 14 15 13 13 13 13 13 11 11 11 9 8 7 6 6 7 7
18 18 16 18 20 18 15 12 12 13 15 14 13 13 15 16 16 16 14 13 14 15 16 15 17 15 17 17 16 15 14 14 14 14 14 13 13 13 11 12 10 8 7 7 7
18 17 16 20 18 15 13 12 13 13 15 15 14 14 14 15 15 15 14 15 15 17 17 17 14 17 18 16 16 15 15 15 15 13 14 15 13 11 12 13 11 10 9 8 8
17 16 18 17 15 13 12 14 14 14 15 15 14 14 14 16 16 15 15 15 17 18 19 17 16 18 18 17 14 15 16 15 13 14 13 14 17 16 14 12 12 12 12 11 10
16 16 16 16 12 13 15 15 14 14 15 15 15 14 15 15 17 15 16 17 18 18 18 18 17 21 20 16 17 16 17 17 17 18 19 16 16 12 12 13 15 14 14 13 12
16 16 16 14 14 14 15 15 15 15 17 15 15 15 16 16 16 16 17 18 19 19 19 19 17 16 17 19 20 21 21 20 18 17 20 21 23 18 18 19 18 17 16 16 15
16 16 16 16 16 15 16 16 16 16 15 16 15 15 15 16 17 17 18 21 21 21 18 17 20 20 22 23 23 25 27 24 22 24 22 24 23 24 21 22 21 18 18 18 17
18 17 17 17 17 17 17 17 17 18 17 17 16 16 16 17 17 20 21 20 21 20 18 19 21 22 22 23 23 24 26 23 23 24 23 24 25 20 19 16 17 18 18 18 17
20 20 19 19 18 18 18 18 18 18 19 18 19 19 20 21 22 24 24 24 23 21 20 21 21 22 22 21 25 24 19 18 18 17 17 17 18 15 14 12 12 13 14 15 16
Wind_Direction
38 35 30 23 17 15 14 13 11 11 12 14 14 15 17 18 22 23 21 16 12 9 10 10 13 12 16 17 12 353 335 284 269 265 274 288 285 286 278 278 274 280 272 275 278
37 34 28 21 16 14 12 8 5 3 2 3 5 7 11 14 21 20 12 10 9 10 12 15 11 13 19 16 13 14 355 299 291 295 291 299 293 291 290 297 286 292 285 286 282
34 29 23 20 21 17 9 4 2 0 359 1 4 6 8 10 13 7 5 5 6 7 9 11 12 16 25 20 14 15 11 345 329 321 317 301 315 315 309 302 300 296 293 289 283
27 24 22 21 22 20 16 10 6 6 9 8 9 15 17 15 13 1 1 0 360 3 7 11 14 18 23 21 15 24 18 358 338 332 329 320 314 322 338 314 309 303 298 292 286
22 20 17 16 16 16 14 13 12 11 9 11 17 24 24 21 16 6 5 2 1 3 7 9 13 14 20 13 11 14 359 355 358 351 344 351 343 330 340 329 322 318 313 306 295
17 14 10 10 12 12 10 11 14 12 12 18 21 17 12 18 10 5 3 3 4 4 4 7 8 10 15 11 10 359 358 359 356 2 27 20 7 353 341 339 337 334 329 327 320
15 12 10 8 8 7 7 11 11 12 10 9 9 11 24 16 7 4 3 1 3 4 3 2 2 6 1 5 358 3 8 359 2 16 21 1 359 352 346 347 348 347 342 337 333
14 11 9 7 7 7 6 7 9 9 8 5 7 9 15 5 0 1 0 1 1 2 3 1 359 3 1 356 360 5 3 356 343 345 347 342 340 344 349 349 354 353 351 348 342
10 8 8 7 8 8 7 10 10 8 9 16 19 20 10 2 0 357 356 357 355 356 357 358 359 2 358 355 353 354 347 346 333 339 307 333 332 338 350 354 354 353 348 347 346
6 6 6 6 7 5 6 8 10 15 20 29 29 27 16 359 356 355 353 352 351 350 353 356 357 359 356 357 339 335 338 338 317 302 333 334 330 334 342 348 349 352 353 350 347
5 3 4 6 6 6 7 9 13 18 36 39 31 26 6 358 356 355 353 351 350 353 350 349 357 349 343 342 335 332 323 325 321 299 297 303 313 323 333 342 350 356 357 358 353
5 5 5 3 3 7 12 16 18 24 29 28 18 10 5 359 353 354 355 355 353 350 347 348 345 343 343 345 335 327 317 314 325 317 304 289 303 313 331 348 358 1 -0 3 3
2 3 3 3 7 7 14 13 10 15 18 10 9 6 358 356 356 351 357 352 356 353 350 347 343 343 340 338 339 326 320 314 306 317 329 306 305 309 327 349 358 6 7 13 15
356 359 359 360 6 4 6 1 0 360 8 352 357 359 354 352 359 356 357 356 353 350 350 342 342 340 336 335 335 328 313 316 308 309 304 315 318 312 323 343 360 3 10 10 14
348 351 354 359 357 2 355 353 356 356 359 342 344 346 348 0 347 353 352 354 352 346 352 342 342 339 336 329 328 315 319 306 300 297 309 300 316 309 331 339 354 4 11 12 14
339 342 345 349 351 352 350 350 352 355 336 340 340 345 352 351 347 345 352 353 350 350 346 337 338 339 335 331 322 323 322 323 313 303 304 293 291 303 306 325 341 360 9 15 18
335 336 337 339 340 341 342 345 346 354 336 333 335 342 342 343 344 349 350 353 355 353 349 345 342 337 337 335 333 334 330 320 317 309 287 296 297 290 289 307 322 344 359 8 15
329 330 331 333 334 336 337 341 348 336 334 331 333 332 341 343 338 340 345 348 349 352 348 349 339 341 339 338 329 327 325 316 307 305 301 295 283 286 274 283 303 325 343 357 6
325 327 328 330 333 334 336 340 332 333 333 332 329 335 331 335 337 341 341 339 340 345 346 344 332 334 333 335 334 328 323 313 304 299 299 292 285 279 264 267 276 287 318 334 347
321 323 322 327 328 332 336 332 329 329 331 329 329 328 328 329 338 339 333 333 336 338 339 335 332 333 331 335 331 326 324 321 317 308 300 294 288 276 260 258 260 265 289 307 320
317 318 318 323 324 330 332 326 328 327 330 329 323 321 324 326 329 326 324 328 331 331 331 331 333 330 331 332 328 329 325 319 311 301 299 303 291 275 265 254 244 264 275 282 293
313 315 318 323 324 325 326 325 325 325 328 327 323 319 320 323 322 320 319 319 325 327 328 329 325 325 319 327 328 325 322 320 315 311 299 301 293 288 277 252 256 267 271 272 278
310 310 315 320 318 320 318 319 319 322 322 324 321 317 321 319 321 315 318 321 322 323 323 324 325 326 330 333 328 321 315 313 310 308 288 291 295 297 280 270 268 263 268 269 273
308 310 311 317 313 315 318 316 315 316 318 319 318 320 319 318 315 316 317 320 320 318 318 319 315 310 307 309 315 313 310 305 300 299 299 279 286 285 275 271 266 265 264 268 275
305 303 304 306 310 310 311 309 309 313 315 316 316 314 315 316 317 313 316 318 314 314 315 314 311 311 307 308 309 306 303 301 291 287 286 293 288 289 272 267 262 260 261 266 272
296 298 301 300 302 303 304 304 303 306 307 309 306 313 310 306 306 311 316 314 312 319 316 315 313 318 312 306 308 308 304 301 295 292 288 290 290 298 289 274 262 256 259 263 270
290 292 295 296 297 300 298 298 300 303 305 302 302 308 304 301 303 305 306 306 304 307 310 309 312 319 314 321 316 309 309 312 309 303 301 292 301 304 297 277 263 256 260 265 272